Regional Weather Roundup
Issued by NWS

Home | Current Version | Previous Version | Text Only | Print | Product List | Glossary Off
Versions: 1 2 3 4 5 6 7 8 9 10 11 12 13 14 15 16 17 18 19 20 21 22 23 24 25 26 27 28 29 30 31 32 33 34 35 36 37 38 39 40 41 42 43 44 45 46 47 48 49 50

000
ASUS43 KMKX 020800
RWRWI

WISCONSIN REGIONAL WEATHER ROUNDUP
NATIONAL WEATHER SERVICE MILWAUKEE/SULLIVAN WI
300 AM CDT TUE SEP 02 2014

NOTE: "FAIR" INDICATES FEW OR NO CLOUDS BELOW 12,000 FEET WITH NO
SIGNIFICANT WEATHER AND/OR OBSTRUCTIONS TO VISIBILITY.

WIZ001-002-006>008-014>016-023>028-020900-
NORTHWEST WISCONSIN

CITY           SKY/WX    TMP DP  RH WIND       PRES   REMARKS
SUPERIOR ARPT  PTCLDY    53  52  96 CALM      29.78R
ASHLAND        MOCLDY    55  52  89 SW6       29.78R
HAYWARD        PTCLDY    54  53  97 CALM      29.81S
SIREN          PTCLDY    55  54  96 CALM      29.81S
RICE LAKE      PTCLDY    58  56  93 CALM      29.83S
LADYSMITH      PTCLDY    56  55  94 CALM      29.84F
EAU CLAIRE     NOT AVBL
MENOMONIE      MOSUNNY   60  57  91 N9        29.83S
NEW RICHMOND   MOCLDY    60  59  97 S3        29.82S
OSCEOLA        MOCLDY    58  58 100 CALM      29.84S
$$

WIZ003>005-009-010-017-018-020900-
NORTH CENTRAL WISCONSIN

CITY           SKY/WX    TMP DP  RH WIND       PRES   REMARKS
WOODRUFF       FOG       52  50  94 CALM      29.83R VSB 1
RHINELANDER    CLEAR     51  50  96 W6        29.84R
EAGLE RIVER    FOG       48  48 100 CALM      29.82R VSB 1/4
LAND O LAKES   CLEAR     46  46 100 CALM      29.83R
PHILLIPS       CLOUDY    54  53  95 CALM      29.82S
TOMAHAWK       CLEAR     47  46  97 CALM      29.84R
MEDFORD        CLEAR     55  54  94 SW3       29.84S
MERRILL        FOG       48  48 100 CALM      29.84R VSB 1/2
$$

WIZ029-030-035-036-043>047-020900-
CENTRAL WISCONSIN

CITY           SKY/WX    TMP DP  RH WIND       PRES   REMARKS
WAUSAU         CLEAR     57  54  89 CALM      29.83R
MOSINEE        CLEAR     54  54 100 SW3       29.85S
MARSHFIELD     FOG       55  54  96 SW3       29.84F VSB 3/4
STEVENS POINT  CLEAR     55  54  95 CALM      29.84F
WAUPACA        CLEAR     58  57  95 CALM      29.84S
WAUTOMA        CLEAR     55  55 100 CALM      29.85S FOG
WISC RAPIDS    FOG       55  54  96 CALM      29.85F VSB 1
CAMP DOUGLAS   CLEAR     54  54 100 CALM      29.85S
$$

WIZ011>013-019>022-031-037>040-048>050-020900-
NORTHEAST WISCONSIN

CITY           SKY/WX    TMP DP  RH WIND       PRES   REMARKS
ANTIGO         CLEAR     50  50 100 CALM      29.84R
STURGEON BAY   PTCLDY    63  55  77 W3        29.80F
GREEN BAY      CLEAR     57  56  96 W3        29.81F
MANITOWOC      NOT AVBL
APPLETON       CLEAR     59  59 100 W8        29.83F
CLINTONVILLE   CLEAR     55  54  94 CALM      29.82F
OSHKOSH        CLEAR     63  60  90 W5        29.83F
$$

WIZ032>034-041-042-053>061-020900-
SOUTHWEST WISCONSIN

CITY           SKY/WX    TMP DP  RH WIND       PRES   REMARKS
LA CROSSE      CLEAR     63  60  90 S5        29.84F
SPARTA         CLEAR     53  52  97 CALM      29.87S FOG
VIROQUA        FAIR      57  57 100 CALM      29.87F
BOSCOBEL       FOG       61  59  93 S3        29.87F VSB 1/4
PRAIRIE DU CHI CLEAR     58  56  94 CALM      29.87S
PLATTEVILLE    FAIR      62  61  94 CALM      29.89R
$$

WIZ056-057-062-063-064-067-068-020900-
SOUTH CENTRAL WISCONSIN

CITY           SKY/WX    TMP DP  RH WIND       PRES   REMARKS
BARABOO/DELLS  FOG       58  56  94 CALM      29.86S VSB 1
LONE ROCK      FOG       62  58  86 CALM      29.87S VSB 1/4
WATERTOWN      CLEAR     58  58 100 CALM      29.85R
MADISON        CLEAR     62  59  90 CALM      29.86R
MIDDLETON      FAIR      61  60  99 CALM      29.87R
MONROE         CLEAR     64  61  88 W8        29.87R
JANESVILLE     CLEAR     64  63  94 CALM      29.86R
$$

WIZ051-052-058>065-066-070>072-020900-
SOUTHEAST WISCONSIN

CITY           SKY/WX    TMP DP  RH WIND       PRES   REMARKS
MILWAUKEE      PTCLDY    67  64  90 W5        29.85S
WAUKESHA       CLEAR     59  59 100 CALM      29.87R
MILWAUKEE/TIMM CLEAR     63  61  94 CALM      29.86R
RACINE         PTCLDY    66  64  93 SW6       29.86F
BURLINGTON     PTCLDY    61  61  99 CALM      29.86R FOG
KENOSHA        PTCLDY    63  63 100 W3        29.86R FOG
FOND DU LAC    CLEAR     58  56  93 CALM      29.84F
SHEBOYGAN      CLEAR     61  59  93 W5        29.83
WEST BEND      CLEAR     61  57  88 CALM      29.85S FOG
JUNEAU         FOG       59  59  99 CALM      29.86S VSB<1/4
$$

LSZ147-162-020900-
LAKE SUPERIOR

STATION/POSITION TIME  TEMP    WIND        PRES    WAVE
                       AIR SEA DIR/SP/G            HT/PER
                 (UTC) (F)     (DEG/KT/KT) (MB)    (FT/S)
W MID LAKE BUOY  0650   60 57  240/  8/ 10 1006.5R   1/ 3
DEVILS ISLAND    0700   62     250/ 10/ 11 1007.0S
PORT WING        0700   59     190/  7/  8 1008.1R
SAXON HARBOR     0700   57     200/  7/ 10 1008.1S
$$

LMZ867-665-643>646-020900-
LAKE MICHIGAN

STATION/POSITION TIME  TEMP    WIND        PRES    WAVE
                       AIR SEA DIR/SP/G            HT/PER
                 (UTC) (F)     (DEG/KT/KT) (MB)    (FT/S)
N MID LAKE BUOY  0650   65 65  240/  4/  6 1008.1S   2/ 5
NORTHPORT PIER   0700   64     270/  3/  7 1008.8R
KEWAUNEE LAKESHO 0700   63     290/  4/  5 1008.8R
SHEBOYGAN LAKESH 0700   65 49  250/  6/  7 1010.1S
ATWATER BUOY     0700   68     270/  4/  4 1011.5F
MILWAUKEE LAKESH 0700   70     240/  3/  5   N/A
S MID LAKE BUOY  0650   70 70  260/  6/  8 1010.4S   2/ 4
KENOSHA   LAKESH 0700   69     270/  5/  8 1010.5F
$$

TC  - TEMPERATURE IN CELSIUS
VSB - VISIBILITY IN STATUTE MILES
WCI - WIND CHILL INDEX
HX  - HEAT INDEX



USA.gov is the U.S. government's official web portal to all federal, state and local government web resources and services.